Regional Weather Roundup
Issued by NWS

Home | Current Version | Previous Version | Text Only | Print | Product List | Glossary Off
Versions: 1 2 3 4 5 6 7 8 9 10 11 12 13 14 15 16 17 18 19 20 21 22 23 24 25 26 27 28 29 30 31 32 33 34 35 36 37 38 39 40 41 42 43 44 45 46 47 48 49 50

000
ASUS45 KSLC 210610
RWRUT

UTAH REGIONAL WEATHER ROUNDUP
NATIONAL WEATHER SERVICE SALT LAKE CITY UT
1100 PM MST SAT DEC 20 2014

UTZ001>011-023>025-210700-

NORTHERN UTAH

CITY           SKY/WX    TMP DP  RH WIND       PRES   REMARKS
BRIGHAM CITY   CLOUDY    41  34  76 S9        30.05R
HILL AFB       CLOUDY    38  36  90 S8        30.05R WCI  32
LOGAN          CLOUDY    41  34  76 S10       30.02S
OGDEN          CLOUDY    39  35  86 SE7       30.04S WCI  34
PROVO AIRPORT  MOCLDY    36  32  87 CALM      30.08F
SALT LAKE CITY CLOUDY    40  34  79 SE6       30.04F
VERNAL         CLOUDY    30  26  85 CALM      30.07F
WENDOVER       CLOUDY    34  27  75 CALM      30.04F
HEBER CITY     CLOUDY    34  32  93 CALM      30.05F
WEST JORDAN    CLOUDY    39  36  87 S12       30.05F WCI  32

$$

UTZ012>022-026-027-210700-

SOUTHERN/CENTRAL UTAH

CITY           SKY/WX    TMP DP  RH WIND       PRES   REMARKS
BLANDING       CLOUDY    32  31  96 CALM      30.19F
BRYCE CANYON   CLOUDY    31  23  72 W7        30.12S WCI  24
CEDAR CITY     PTCLDY    33  27  78 SE5       30.12S WCI  29
DELTA          MOCLDY    33  31  93 S8        30.08S WCI  26
MILFORD        PTCLDY    34  28  79 SW15      30.08F WCI  24
MOAB/CYNLANDS  CLOUDY    35  33  92 CALM      30.12F
PRICE          CLOUDY    31  26  82 CALM      30.11S
ST GEORGE      PTCLDY    43  32  65 CALM      30.17R
KANAB          MOCLDY    32  32 100 NE6       30.19R WCI  26

$$

REGIONAL REPORTS     COLORADO/ARIZONA

CITY           SKY/WX    TMP DP  RH WIND       PRES   REMARKS
CRAIG, CO      CLOUDY    27  25  92 CALM      30.04F
GRAND JUNCTION CLOUDY    33  31  92 CALM      30.12F
RIFLE          CLOUDY    30  28  92 E3        30.11S FOG
MONTROSE       FLURRIES  32  27  81 NE5       30.14R WCI  27
CORTEZ         CLOUDY    32  28  85 E3        30.13R
PAGE, AZ       CLOUDY    38  30  73 SW3       30.16R
GRAND CANYON   MOCLDY    28  24  85 CALM      30.17R
KINGMAN        PTCLDY    35  31  85 E7        30.16F WCI  29
FLAGSTAFF      PTCLDY    28  22  78 CALM      30.17R

$$

REGIONAL REPORTS    NEVADA/IDAHO/WYOMING

CITY           SKY/WX    TMP DP  RH WIND       PRES   REMARKS
LAS VEGAS, NV  PTCLDY    49  37  63 SW7       30.12S
ELY            CLOUDY    34  31  88 NW5       30.16R WCI  30
ELKO           LGT RAIN  36  33  89 SW10      30.09S WCI  28
POCATELLO, ID  LGT RAIN  37  35  92 S13       29.96F WCI  29
BURLEY         LGT RAIN  39  35  86 SW12      29.96F WCI  32
EVANSTON, WY   CLOUDY    30  28  92 SW15      30.00F WCI  19
ROCK SPRINGS   MOCLDY    30  26  85 W25       29.97R WCI  16
KEMMERER       FLURRIES  28  28 100 SW7       29.97S WCI  21

$$



USA.gov is the U.S. government's official web portal to all federal, state and local government web resources and services.